Wind_Speed
7 7 7 6 7 9 11 14 19 20 18 24 26 25 15 14 7 6 9 16 17 15 15 14 13 14 14 13 11 11 10 7 2 8 10 13 17 20 20 20 22 22 23 25
4 4 4 5 9 10 13 16 17 17 25 27 26 20 16 5 6 8 8 13 17 17 16 16 14 13 12 11 11 8 6 4 1 6 10 12 15 17 19 21 24 25 26 27
4 4 6 9 11 11 13 14 17 22 27 28 21 12 4 5 7 7 8 12 15 19 19 17 15 14 13 11 10 9 6 3 3 6 9 12 15 17 19 22 24 25 26 26
4 9 10 11 10 11 14 15 19 22 25 11 16 6 10 9 8 7 8 11 14 17 19 19 16 13 12 11 11 11 9 9 9 10 11 13 15 17 19 21 23 24 26 24
6 8 11 7 5 10 13 19 21 26 18 15 5 5 4 7 8 9 10 12 14 16 20 19 17 14 12 12 11 10 11 12 14 16 18 17 17 18 20 22 22 23 24 24
9 11 4 6 7 16 18 16 21 13 9 2 2 3 4 4 7 9 12 14 14 16 19 19 17 15 13 12 12 12 12 13 13 14 17 19 19 20 20 19 21 23 25 24
11 4 4 5 15 17 10 14 6 4 2 4 2 8 10 8 10 11 13 15 15 16 17 15 15 15 15 14 13 11 10 11 14 15 16 18 20 21 21 20 22 22 23 24
5 2 4 11 17 10 12 9 1 4 2 5 21 8 3 6 9 11 14 14 14 14 16 13 13 16 18 18 17 14 13 11 11 12 13 14 16 19 21 24 25 24 24 24
6 4 11 19 12 6 8 4 6 6 8 4 6 8 12 13 11 12 17 16 14 13 13 14 16 17 18 21 21 17 16 16 15 14 13 14 15 16 16 18 20 24 28 29
6 10 14 10 9 13 10 10 5 4 1 4 7 11 14 10 13 18 20 20 20 21 23 22 24 25 25 22 20 18 16 14 14 15 16 17 17 18 18 18 19 21 21 24
12 9 10 17 10 11 15 11 7 7 6 4 3 6 5 6 12 19 21 26 27 27 33 31 30 29 27 25 20 17 18 18 17 18 18 18 21 23 24 24 24 24 24 24
17 11 16 21 21 20 19 18 14 8 5 9 8 15 24 22 22 26 28 25 32 40 34 35 28 23 22 21 18 16 17 19 20 22 23 25 27 27 28 28 29 31 30 30
13 8 10 8 9 6 9 12 16 20 20 21 8 14 12 17 17 15 19 30 40 29 24 22 23 21 21 24 27 29 31 32 33 35 36 34 37 39 36 33 32 31 35 35
23 21 24 22 24 28 29 26 21 24 19 33 38 55 46 42 33 36 45 36 28 26 23 23 23 25 28 30 33 35 35 37 38 39 40 41 41 41 41 40 39 38 37 36
23 28 29 36 35 36 41 37 35 40 46 42 59 45 51 46 43 35 30 23 19 21 23 24 26 29 32 35 36 37 39 41 43 44 45 46 46 45 44 42 42 42 40 39
30 33 32 41 37 37 41 36 40 41 43 50 52 54 36 21 20 22 23 24 22 22 25 28 31 33 36 38 41 42 43 45 46 47 49 53 54 52 50 47 44 44 44 43
35 28 23 26 21 19 30 28 15 20 23 20 24 26 26 24 23 19 21 23 25 29 32 33 34 38 41 43 45 48 50 52 55 57 59 57 48 45 45 45 43 44 44 44
38 36 24 29 28 7 17 12 11 16 25 28 26 25 24 22 19 19 21 23 28 29 30 33 37 42 45 50 52 54 57 60 59 55 52 46 42 40 41 42 41 41 41 42
23 29 21 11 14 31 40 23 24 18 18 14 18 20 23 25 27 25 28 32 33 37 41 45 48 51 55 59 60 59 59 57 51 50 48 43 40 39 38 37 36 36 37 37
13 15 24 14 7 6 10 9 14 22 25 22 21 24 26 26 30 33 35 40 44 47 49 52 54 56 55 55 54 51 48 45 45 45 45 41 37 36 36 35 35 34 34 36
12 17 26 31 22 22 27 29 31 23 21 21 22 30 33 35 35 40 47 45 45 51 49 51 50 50 47 44 40 40 40 39 41 41 39 37 34 34 34 35 35 36 36 37
14 13 15 15 18 15 26 29 20 22 29 33 39 47 45 40 40 42 42 45 47 49 49 46 43 40 37 36 35 36 35 34 35 36 35 34 33 33 34 34 34 34 36 37
20 21 19 15 32 28 35 45 51 45 44 53 43 39 38 40 43 42 43 44 41 39 37 34 34 34 29 28 29 31 32 34 36 37 36 33 32 32 34 36 34 34 36 35
36 30 32 38 46 31 35 40 44 49 55 55 46 42 42 39 38 40 39 34 36 34 33 31 31 31 30 27 27 29 32 33 35 35 38 40 38 36 35 34 33 33 33 35
42 39 40 44 43 43 44 41 46 48 48 49 49 46 44 40 40 32 33 30 29 29 30 31 31 32 32 33 33 33 36 38 39 37 36 38 40 42 39 38 36 35 33 34
37 33 33 43 39 37 43 41 36 38 39 38 36 31 29 31 32 19 25 27 29 31 32 33 35 38 39 39 40 40 42 41 42 43 42 40 42 42 43 43 39 37 35 34
Wind_Direction
284 282 283 299 333 331 331 333 328 324 323 318 321 319 294 285 245 276 345 2 356 345 341 335 327 326 333 345 355 1 7 17 290 240 223 221 222 228 235 241 250 254 254 258
299 290 337 332 322 331 337 333 329 323 323 320 322 324 304 277 235 262 321 358 6 359 349 340 333 319 323 332 344 357 12 34 98 208 216 224 234 239 242 246 249 254 257 258
340 7 355 330 331 335 334 328 325 322 320 321 326 320 289 238 242 264 328 347 357 6 360 346 332 328 321 323 322 326 327 300 244 234 247 249 249 251 257 257 256 258 260 262
4 351 347 338 330 324 326 323 319 318 317 312 318 283 259 245 246 264 313 329 343 356 356 351 339 324 320 317 309 305 297 286 278 268 256 260 258 258 260 260 263 264 262 261
331 330 328 322 316 332 323 324 320 311 306 305 291 259 257 250 250 271 296 320 337 351 355 348 338 328 319 306 304 302 298 287 278 275 274 266 262 264 265 268 263 260 261 265
340 323 329 324 327 329 322 325 317 304 301 297 284 293 268 268 256 266 287 305 324 335 348 347 341 337 330 321 309 297 290 288 287 283 280 280 280 273 270 267 267 268 267 263
330 308 311 318 324 324 323 335 323 333 338 226 279 292 253 267 272 275 287 303 317 330 344 346 344 342 340 337 332 316 304 292 289 286 282 281 283 284 282 275 269 264 263 264
323 300 291 313 317 308 319 340 287 250 267 283 290 245 243 266 270 274 285 293 307 323 334 338 340 337 331 328 326 324 319 313 304 297 294 290 286 283 279 278 277 273 270 266
301 269 287 303 302 287 307 300 289 258 278 294 253 266 272 257 256 261 270 282 302 322 325 321 327 330 329 324 318 315 313 311 311 311 310 307 305 302 299 293 288 281 275 270
284 291 294 291 287 289 281 288 269 238 299 262 273 272 263 249 255 253 271 281 291 307 318 316 316 314 313 307 302 304 308 312 315 318 319 319 315 312 310 307 303 298 293 288
296 285 281 298 289 282 284 265 239 242 241 205 275 243 244 257 254 259 267 282 292 304 312 313 308 303 299 293 289 290 293 295 298 302 305 306 307 309 310 308 306 304 303 298
293 281 281 291 284 279 271 264 244 229 236 238 265 273 275 273 262 264 266 272 299 304 304 300 288 275 277 276 275 277 283 288 292 295 297 299 302 302 302 299 300 301 298 295
284 275 299 292 273 279 265 268 250 242 248 245 239 260 273 282 281 257 266 282 302 305 302 286 277 277 275 279 281 283 286 288 290 292 295 295 290 295 294 293 294 291 290 292
290 275 269 259 278 287 281 276 265 262 260 265 247 272 267 273 273 274 285 289 284 283 277 271 275 280 283 285 287 289 292 293 293 294 296 297 297 295 294 293 292 287 285 285
278 271 279 284 286 285 283 276 271 264 266 259 275 270 280 287 289 290 294 297 290 280 265 270 274 276 280 282 284 287 291 292 294 297 299 300 300 299 298 294 293 289 285 283
274 271 279 281 284 287 286 282 277 275 274 267 273 281 295 291 286 285 280 282 280 271 266 270 274 279 281 285 290 293 297 297 297 296 300 306 299 296 294 292 290 284 282 283
273 269 277 285 293 293 288 296 285 282 280 284 279 295 290 294 290 285 278 273 267 265 266 269 276 281 285 292 296 297 295 297 302 305 306 306 300 295 292 289 286 281 277 276
267 267 263 274 291 273 287 278 273 284 288 286 284 283 286 286 279 270 273 275 273 276 281 288 297 300 303 306 307 306 306 306 306 307 305 302 299 296 293 291 289 284 279 275
262 258 246 245 246 275 284 284 282 285 289 287 280 276 274 273 273 275 291 289 297 303 306 307 307 309 311 313 310 308 306 304 305 303 300 303 305 304 302 298 295 291 286 281
272 262 227 235 237 253 284 281 294 298 280 280 268 263 272 281 293 289 302 303 304 305 307 309 309 309 309 309 306 302 298 299 299 297 300 306 308 308 306 303 300 297 294 291
268 265 237 244 250 260 268 282 285 275 279 260 260 291 304 304 298 302 308 304 303 304 306 306 305 305 304 299 297 297 299 301 299 299 301 306 303 302 303 302 301 300 296 294
273 270 259 241 256 265 275 276 279 272 268 283 297 301 304 300 297 297 298 298 301 300 300 300 298 298 302 305 303 301 302 301 298 299 302 305 305 302 296 301 302 301 304 297
267 266 274 264 259 260 276 279 284 291 296 302 302 300 298 298 297 297 298 300 299 298 300 305 305 305 306 306 303 304 303 299 298 299 299 301 302 305 304 300 302 303 303 302
284 286 280 287 285 285 282 280 275 276 281 287 287 290 294 292 292 295 299 298 298 299 302 302 302 302 303 305 307 310 309 308 303 303 300 297 298 298 300 303 303 303 305 306
288 292 294 292 295 300 293 293 291 292 291 290 289 288 288 289 291 291 296 300 299 300 300 300 300 299 300 301 303 304 307 309 307 306 303 301 297 293 296 299 300 303 304 306
296 296 295 299 302 302 302 303 302 298 298 298 296 294 291 288 284 296 294 297 300 300 300 299 298 297 297 296 297 299 304 306 306 306 305 303 301 299 296 292 295 296 301 304
Height
3138 3138 3137 3137 3135 3135 3135 3133 3130 3129 3128 3125 3122 3118 3115 3114 3115 3115 3114 3111 3107 3104 3100 3098 3094 3092 3089 3085 3082 3078 3074 3071 3071 3072 3073 3074 3075 3078 3080 3081 3082 3083 3084 3085
3138 3135 3135 3134 3134 3134 3133 3131 3130 3127 3125 3122 3118 3114 3110 3111 3112 3112 3111 3108 3105 3102 3098 3095 3093 3090 3088 3085 3083 3079 3076 3073 3072 3073 3074 3076 3076 3076 3076 3077 3077 3078 3079 3080
3134 3134 3133 3133 3133 3133 3132 3131 3128 3126 3121 3118 3114 3110 3108 3109 3109 3109 3108 3106 3104 3101 3098 3094 3091 3088 3086 3083 3081 3079 3077 3075 3074 3074 3074 3074 3074 3075 3074 3073 3073 3073 3074 3075
3133 3133 3133 3132 3132 3132 3131 3129 3126 3123 3120 3117 3115 3112 3107 3107 3107 3106 3106 3105 3103 3099 3096 3092 3090 3087 3084 3082 3080 3078 3077 3075 3074 3073 3072 3071 3071 3071 3070 3069 3069 3069 3068 3069
3134 3132 3131 3131 3131 3130 3129 3126 3123 3119 3116 3115 3113 3114 3105 3105 3105 3104 3103 3102 3099 3097 3094 3091 3087 3085 3083 3081 3078 3077 3075 3074 3073 3072 3070 3069 3068 3067 3066 3066 3064 3064 3064 3064
3132 3131 3131 3131 3130 3129 3127 3125 3120 3116 3115 3114 3112 3113 3104 3102 3102 3102 3101 3098 3096 3095 3092 3089 3086 3083 3081 3079 3076 3074 3073 3071 3070 3069 3068 3067 3065 3064 3062 3061 3060 3060 3060 3059
3132 3130 3130 3130 3129 3127 3126 3124 3120 3119 3116 3114 3112 3111 3101 3100 3100 3099 3097 3095 3093 3091 3089 3088 3085 3083 3079 3077 3074 3072 3070 3068 3066 3065 3064 3063 3062 3061 3059 3058 3057 3056 3055 3055
3130 3129 3129 3129 3128 3126 3124 3124 3125 3129 3123 3114 3110 3103 3099 3098 3098 3097 3094 3091 3090 3089 3086 3085 3083 3081 3079 3076 3074 3071 3068 3066 3063 3061 3059 3057 3056 3055 3054 3054 3053 3051 3051 3050
3129 3128 3126 3125 3124 3125 3122 3122 3122 3120 3117 3116 3103 3098 3096 3094 3095 3093 3090 3088 3087 3085 3084 3082 3080 3078 3077 3074 3072 3070 3067 3064 3062 3059 3057 3055 3053 3051 3049 3048 3046 3045 3045 3043
3128 3126 3123 3122 3122 3121 3120 3120 3119 3119 3119 3113 3099 3094 3090 3091 3091 3089 3087 3085 3084 3082 3079 3078 3076 3074 3072 3069 3068 3066 3064 3062 3060 3057 3055 3052 3050 3047 3045 3043 3042 3040 3038 3037
3126 3125 3122 3120 3118 3117 3117 3116 3117 3117 3114 3110 3106 3089 3087 3087 3087 3085 3084 3082 3080 3079 3075 3074 3072 3069 3067 3065 3063 3062 3060 3059 3057 3054 3052 3049 3047 3044 3041 3038 3036 3034 3032 3030
3124 3122 3118 3117 3114 3113 3112 3111 3113 3113 3110 3106 3101 3083 3084 3084 3084 3081 3079 3077 3074 3073 3071 3068 3065 3064 3063 3061 3060 3057 3055 3053 3051 3048 3046 3044 3041 3039 3036 3034 3031 3028 3025 3023
3121 3118 3116 3112 3112 3110 3108 3107 3107 3106 3103 3097 3097 3079 3078 3080 3079 3077 3074 3072 3069 3066 3064 3061 3060 3058 3057 3056 3054 3052 3050 3047 3044 3041 3039 3036 3034 3031 3029 3026 3024 3021 3019 3016
3116 3113 3112 3110 3109 3108 3106 3105 3106 3103 3098 3087 3078 3066 3074 3076 3076 3072 3068 3065 3062 3060 3059 3057 3056 3054 3051 3049 3046 3043 3041 3037 3035 3033 3030 3027 3025 3022 3019 3016 3013 3011 3008 3006
3112 3105 3106 3102 3101 3099 3094 3094 3095 3090 3084 3083 3057 3065 3065 3068 3065 3061 3059 3058 3056 3054 3053 3053 3050 3047 3044 3041 3038 3035 3032 3029 3025 3021 3018 3016 3013 3011 3008 3005 3002 2999 2997 2993
3104 3099 3097 3089 3091 3089 3080 3081 3077 3074 3069 3065 3061 3052 3060 3056 3056 3055 3053 3052 3051 3049 3048 3045 3042 3039 3035 3031 3028 3025 3021 3017 3014 3011 3007 3005 3000 2996 2994 2991 2988 2986 2984 2981
3096 3096 3094 3082 3082 3079 3069 3067 3066 3063 3060 3059 3056 3055 3052 3051 3050 3048 3047 3046 3044 3041 3039 3036 3034 3030 3027 3024 3020 3016 3012 3007 3003 2997 2993 2989 2985 2981 2978 2975 2973 2971 2968 2965
3085 3087 3090 3081 3082 3075 3062 3060 3060 3059 3057 3054 3053 3050 3048 3045 3044 3043 3041 3039 3037 3034 3030 3028 3026 3023 3018 3014 3010 3004 2999 2993 2989 2984 2979 2976 2972 2968 2964 2960 2958 2956 2953 2951
3078 3080 3082 3079 3073 3061 3058 3060 3057 3054 3051 3049 3049 3047 3044 3040 3037 3037 3034 3032 3029 3026 3023 3019 3016 3011 3005 3001 2997 2991 2987 2981 2977 2971 2967 2964 2960 2956 2953 2949 2946 2943 2940 2938
3074 3073 3074 3073 3070 3060 3055 3055 3054 3051 3047 3043 3041 3039 3035 3032 3028 3028 3026 3023 3020 3017 3013 3008 3004 2999 2994 2991 2986 2981 2976 2971 2967 2961 2957 2954 2951 2947 2942 2939 2936 2933 2929 2926
3069 3068 3064 3063 3061 3052 3048 3048 3047 3047 3046 3036 3033 3031 3028 3024 3023 3019 3015 3013 3010 3004 3001 2997 2992 2986 2982 2980 2976 2970 2966 2962 2957 2952 2948 2946 2942 2938 2935 2930 2927 2922 2919 2916
3064 3064 3058 3057 3055 3048 3045 3043 3042 3037 3031 3028 3023 3020 3017 3014 3011 3009 3005 3001 2997 2993 2990 2986 2981 2977 2974 2970 2965 2961 2957 2952 2947 2944 2940 2937 2933 2930 2925 2921 2918 2914 2909 2905
3057 3056 3053 3054 3043 3042 3039 3036 3033 3027 3021 3017 3013 3009 3007 3004 3001 2998 2994 2991 2987 2982 2978 2975 2971 2968 2966 2963 2958 2953 2949 2944 2939 2935 2932 2929 2925 2922 2917 2913 2909 2905 2901 2896
3045 3044 3041 3041 3031 3031 3028 3026 3023 3017 3011 3007 3003 2999 2996 2992 2990 2987 2983 2981 2977 2974 2971 2967 2964 2961 2958 2955 2951 2946 2941 2936 2931 2927 2923 2919 2915 2912 2909 2905 2901 2897 2893 2888
3037 3033 3030 3022 3021 3017 3013 3011 3007 3002 2999 2995 2991 2987 2983 2981 2979 2976 2974 2971 2969 2966 2964 2960 2957 2953 2949 2946 2942 2938 2933 2927 2922 2918 2914 2909 2905 2901 2898 2895 2891 2888 2884 2879
3027 3024 3021 3012 3011 3007 2999 2997 2995 2989 2985 2983 2978 2974 2973 2971 2969 2968 2967 2965 2962 2958 2955 2951 2948 2943 2940 2936 2932 2927 2922 2916 2911 2907 2903 2899 2894 2890 2887 2883 2880 2878 2874 2871